Lake Isabella Weather Center

Moon Phase Calendar



Lake Isabella Water Level
Online Cameras

 


      

Current Conditions in Wofford Heights
9/23/2021 5:25:19 AM

64°F
Feels Like 62
Clouds
Humidity
48%
Pressure
30.24"
Wind
4.3 mph (NNW)
Dew Point
44°F
UV Index
0/10 (Low)
Visibility
6 mi

Hourly Forecast

Date & Time Thu, Sep 23
5:00 AM
Thu, Sep 23
6:00 AM
Thu, Sep 23
7:00 AM
Thu, Sep 23
8:00 AM
Thu, Sep 23
9:00 AM
Thu, Sep 23
10:00 AM
Thu, Sep 23
11:00 AM
Thu, Sep 23
12:00 PM
Thu, Sep 23
1:00 PM
Thu, Sep 23
2:00 PM
Thu, Sep 23
3:00 PM
Thu, Sep 23
4:00 PM
Thu, Sep 23
5:00 PM
Thu, Sep 23
6:00 PM
Thu, Sep 23
7:00 PM
Thu, Sep 23
8:00 PM
Thu, Sep 23
9:00 PM
Thu, Sep 23
10:00 PM
Thu, Sep 23
11:00 PM
Fri, Sep 24
12:00 AM
Fri, Sep 24
1:00 AM
Fri, Sep 24
2:00 AM
Fri, Sep 24
3:00 AM
Fri, Sep 24
4:00 AM
Fri, Sep 24
5:00 AM
Fri, Sep 24
6:00 AM
Fri, Sep 24
7:00 AM
Fri, Sep 24
8:00 AM
Fri, Sep 24
9:00 AM
Fri, Sep 24
10:00 AM
Fri, Sep 24
11:00 AM
Fri, Sep 24
12:00 PM
Fri, Sep 24
1:00 PM
Fri, Sep 24
2:00 PM
Fri, Sep 24
3:00 PM
Fri, Sep 24
4:00 PM
Fri, Sep 24
5:00 PM
Fri, Sep 24
6:00 PM
Fri, Sep 24
7:00 PM
Fri, Sep 24
8:00 PM
Fri, Sep 24
9:00 PM
Fri, Sep 24
10:00 PM
Fri, Sep 24
11:00 PM
Sat, Sep 25
12:00 AM
Sat, Sep 25
1:00 AM
Sat, Sep 25
2:00 AM
Sat, Sep 25
3:00 AM
Sat, Sep 25
4:00 AM
Condition
Clouds

Clouds

Clear

Clear

Clear

Clear

Clear

Clear

Clouds

Clouds

Clouds

Clouds

Clouds

Clouds

Clouds

Clouds

Clouds

Clouds

Clouds

Clouds

Clouds

Clouds

Clouds

Clouds

Clouds

Clear

Clear

Clear

Clear

Clear

Clear

Clear

Clear

Clear

Clear

Clear

Clear

Clouds

Clear

Clear

Clear

Clear

Clear

Clear

Clear

Clear

Clear

Clear
Temperature 64°F64°F64°F69°F77°F84°F87°F90°F91°F92°F91°F90°F87°F84°F75°F71°F70°F69°F68°F68°F68°F67°F67°F67°F67°F66°F67°F76°F83°F88°F90°F92°F94°F94°F93°F91°F89°F86°F74°F72°F71°F70°F69°F68°F68°F67°F67°F67°F
Feels Like 62°F62°F62°F68°F75°F81°F84°F86°F87°F88°F87°F86°F84°F81°F73°F70°F69°F68°F66°F66°F66°F66°F66°F65°F65°F64°F65°F75°F81°F84°F86°F88°F89°F89°F88°F87°F85°F83°F73°F70°F69°F68°F67°F66°F66°F66°F65°F65°F
Cloudiness 14%11%8%6%3%1%1%7%43%50%57%48%49%96%98%98%99%88%74%11%26%48%60%63%60%8%9%7%7%7%7%2%3%4%4%4%7%16%10%8%6%5%4%0%0%0%0%0%
Visibility 6 mi6 mi6 mi6 mi6 mi6 mi6 mi6 mi6 mi6 mi6 mi6 mi6 mi6 mi6 mi6 mi6 mi6 mi6 mi6 mi6 mi6 mi6 mi6 mi6 mi6 mi6 mi6 mi6 mi6 mi6 mi6 mi6 mi6 mi6 mi6 mi6 mi6 mi6 mi6 mi6 mi6 mi6 mi6 mi6 mi6 mi6 mi6 mi
Precipitation 0%0%0%0%0%0%0%0%0%0%0%0%0%0%0%0%0%0%0%0%0%0%0%0%0%0%0%0%0%0%0%0%0%0%0%0%0%0%0%0%0%0%0%0%0%0%0%0%
Humidity 48%48%47%40%31%23%20%18%16%16%17%18%20%24%33%38%39%41%42%42%41%40%39%38%36%35%33%23%17%14%12%11%11%11%13%14%15%18%29%33%32%32%35%37%37%37%36%37%
Dew Point 44°F44°F43°F44°F44°F38°F37°F36°F35°F34°F35°F36°F37°F39°F39°F39°F39°F39°F39°F39°F38°F37°F36°F35°F34°F33°F32°F31°F30°F29°F28°F27°F27°F28°F30°F32°F32°F34°F35°F36°F35°F34°F35°F36°F35°F35°F35°F35°F
Pressure 30.24"30.18"30.15"30.09"30"29.94"29.91"29.88"29.88"29.85"29.85"29.83"29.85"29.85"29.88"29.91"29.94"29.97"29.97"29.97"29.94"29.97"29.94"29.94"29.97"29.97"29.97"29.97"29.94"29.94"29.91"29.88"29.88"29.85"29.85"29.85"29.85"29.88"29.91"29.94"29.97"29.97"30"30"29.97"30"29.97"30"
Wind Speed 4.3 mph5.4 mph5.3 mph3.6 mph2.5 mph3.5 mph4.6 mph5.1 mph5.6 mph6.4 mph7.5 mph7.9 mph7 mph5.7 mph5.1 mph4.6 mph3.9 mph3.9 mph3.7 mph4.1 mph4.1 mph4.4 mph4.7 mph4.1 mph4.4 mph4.6 mph4.7 mph3.6 mph1.4 mph1.8 mph3.3 mph4.4 mph4.8 mph5 mph6.9 mph7.4 mph7.2 mph4.9 mph3.8 mph4.6 mph4.7 mph5 mph4.3 mph4.1 mph4.1 mph4.1 mph4.2 mph4.4 mph
Wind
Direction
337°
NNW
334°
NNW
339°
NNW
348°
NNW
284°
WNW
242°
WSW
221°
SW
213°
SSW
219°
SW
230°
SW
241°
WSW
250°
WSW
256°
WSW
271°
W
294°
WNW
331°
NNW
349°
N
350°
N
355°
N

N

N

N
11°
N
27°
NNE
38°
NE
44°
NE
45°
NE
45°
NE
89°
E
163°
SSE
189°
S
194°
SSW
197°
SSW
209°
SSW
245°
WSW
254°
WSW
277°
W
275°
W
309°
NW
355°
N
16°
NNE

N
22°
NNE
23°
NNE
21°
NNE
23°
NNE
21°
NNE
15°
NNE

Daily Forecast

Date High Low Precip. Humidity
Today
Sep 23

Clear
92 °F
64 °F
0%
18%
Friday
Sep 24

Clear
94 °F
66 °F
0%
11%
Saturday
Sep 25

Clear
92 °F
66 °F
0%
17%
Sunday
Sep 26

Clear
88 °F
64 °F
0%
21%
Monday
Sep 27

Clear
87 °F
63 °F
0%
23%
Tuesday
Sep 28

Clear
77 °F
54 °F
0%
39%
Wednesday
Sep 29

Clouds
80 °F
55 °F
0%
22%
Thursday
Sep 30

Clouds
88 °F
56 °F
0%
7%
Friday
Oct 1

Clear
92 °F
62 °F
0%
13%
Saturday
Oct 2

Clear
93 °F
66 °F
0%
12%
Sunday
Oct 3

Clear
94 °F
67 °F
0%
14%
Monday
Oct 4

Clouds
94 °F
69 °F
0%
16%
Tuesday
Oct 5

Clear
92 °F
68 °F
8%
20%
Wednesday
Oct 6

Clear
90 °F
68 °F
0%
22%
Thursday
Oct 7

Clear
90 °F
68 °F
0%
21%
Friday
Oct 8

Clear
92 °F
67 °F
0%
17%

Temperature 8-14 Day Outlook



Precipitation 8-14 Day Outlook




Quick Links
Lake Isabella News
Lake Isabella Photos
Lake Isabella Videos




About Us
Contact Us
Site Map
Search Site
Advertise With Us
   
Isabella.USLakes.info
THE LAKE ISABELLA WEBSITE

Copyright 2021, Lakes Online
Privacy    |    Legal